Weather in 小ity of New Haven

United States     41掳18鈥26鈥砃   72掳55鈥32鈥砏
temp.,
掳C
wind,
m/s
gust,
m/s
humid.,
%
clouds,
%
prec.,
mm/h
press.,
hPa
HPBL,
m
24 may, tue
tue2423:00+16ene3570100 0.0 1022135
02:00+15e3481100 0.0 1024161
05:00+14ne3678100 0.0 1024252
08:00+15ne4769100 0.0 1026473
11:00+16ese4557100 0.0 1027810
14:00+16se5559100 0.0 1026542
17:00+17se455433 0.0 1026449
20:00+14se46705 0.0 1026233
25 may, wed
wed2523:00+13ese357815 0.0 1028244
02:00+12ene2284100 0.0 1028171
05:00+11ene2384100 0.0 1028171
08:00+13ene237286 0.0 1030325
11:00+15se336173 0.0 1029468
14:00+16ese455750 0.0 1028467
17:00+16se555972 0.0 1028366
20:00+14sse4768100 0.0 1028274
26 may, thu
thu2623:00+12s3572100 0.0 1028204
02:00+12s347799 0.0 1028174
05:00+12sse2485100 0.0 1027160
08:00+14sse367858 0.0 1028424
11:00+18sse466445 0.0 1027678
14:00+18sse476397 0.0 1026637
17:00+18s576965 0.0 1024572
20:00+17s487899 0.0 1023379
27 may, fri
fri2723:00+16s3885100 0.0 1022319
02:00+17ssw3988100 0.0 1020365
05:00+17s41192100 0.1 1018391
08:00+17ssw41293100 0.3 1018405
11:00+18ssw51292100 0.1 1017404
14:00+21ssw71279100 0.1 1015647
17:00+21ssw71278100 0.0 1014482
20:00+18ssw51296100 1.6 1014386
28 may, sat
sat2823:00+17s3799100 2.7 1013232
02:00+17ssw38100100 3.9 1012245
05:00+17ssw36100100 0.5 1011227
08:00+17se35100100 1.1 1011185
11:00+17ssw4899100 0.3 1012299
14:00+21ssw3578100 0.4 1011675
17:00+21ssw3580100 0.8 1011295
20:00+18sse3592100 1.1 101298